Year,Month,Day,Hour,Minute,Value (Times are PST for windgust in km/hr)
2007,12,03,00,00,3.20
2007,12,03,00,01,3.20
2007,12,03,00,02,3.20
2007,12,03,00,03,3.20
2007,12,03,00,04,3.20
2007,12,03,00,05,3.20
2007,12,03,00,06,3.20
2007,12,03,00,07,1.60
2007,12,03,00,08,3.20
2007,12,03,00,09,3.20
2007,12,03,00,10,3.20
2007,12,03,00,11,3.20
2007,12,03,00,12,0.00
2007,12,03,00,13,0.00
2007,12,03,00,14,3.20
2007,12,03,00,15,1.60
2007,12,03,00,16,0.00
2007,12,03,00,17,0.00
2007,12,03,00,18,1.60
2007,12,03,00,19,4.80
2007,12,03,00,20,3.20
2007,12,03,00,21,3.20
2007,12,03,00,22,3.20
2007,12,03,00,23,0.00
2007,12,03,00,24,1.60
2007,12,03,00,25,0.00
2007,12,03,00,26,0.00
2007,12,03,00,27,0.00
2007,12,03,00,28,1.60
2007,12,03,00,29,4.80
2007,12,03,00,30,4.80
2007,12,03,00,31,4.80
2007,12,03,00,32,4.80
2007,12,03,00,33,4.80
2007,12,03,00,34,3.20
2007,12,03,00,35,4.80
2007,12,03,00,36,3.20
2007,12,03,00,37,3.20
2007,12,03,00,38,3.20
2007,12,03,00,39,3.20
2007,12,03,00,40,0.00
2007,12,03,00,41,3.20
2007,12,03,00,42,1.60
2007,12,03,00,43,3.20
2007,12,03,00,44,1.60
2007,12,03,00,45,0.00
2007,12,03,00,46,0.00
2007,12,03,00,47,0.00
2007,12,03,00,48,3.20
2007,12,03,00,49,4.80
2007,12,03,00,50,3.20
2007,12,03,00,51,1.60
2007,12,03,00,52,4.80
2007,12,03,00,53,6.40
2007,12,03,00,54,3.20
2007,12,03,00,55,8.10
2007,12,03,00,56,8.10
2007,12,03,00,57,9.60
2007,12,03,00,58,4.80
2007,12,03,00,59,1.60
2007,12,03,01,00,3.20
2007,12,03,01,01,3.20
2007,12,03,01,02,6.40
2007,12,03,01,03,3.20
2007,12,03,01,04,4.80
2007,12,03,01,05,4.80
2007,12,03,01,06,4.80
2007,12,03,01,07,3.20
2007,12,03,01,08,4.80
2007,12,03,01,09,1.60
2007,12,03,01,10,4.80
2007,12,03,01,11,4.80
2007,12,03,01,12,8.10
2007,12,03,01,13,4.80
2007,12,03,01,14,8.10
2007,12,03,01,15,4.80
2007,12,03,01,16,0.00
2007,12,03,01,17,0.00
2007,12,03,01,18,0.00
2007,12,03,01,19,0.00
2007,12,03,01,20,3.20
2007,12,03,01,21,4.80
2007,12,03,01,22,4.80
2007,12,03,01,23,6.40
2007,12,03,01,24,4.80
2007,12,03,01,25,4.80
2007,12,03,01,26,1.60
2007,12,03,01,27,0.00
2007,12,03,01,28,0.00
2007,12,03,01,29,3.20
2007,12,03,01,30,9.60
2007,12,03,01,31,4.80
2007,12,03,01,32,4.80
2007,12,03,01,33,4.80
2007,12,03,01,34,9.60
2007,12,03,01,35,6.40
2007,12,03,01,36,6.40
2007,12,03,01,37,3.20
2007,12,03,01,38,0.00
2007,12,03,01,39,0.00
2007,12,03,01,40,0.00
2007,12,03,01,41,3.20
2007,12,03,01,42,4.80
2007,12,03,01,43,8.10
2007,12,03,01,44,6.40
2007,12,03,01,45,8.10
2007,12,03,01,46,3.20
2007,12,03,01,47,4.80
2007,12,03,01,48,4.80
2007,12,03,01,49,6.40
2007,12,03,01,50,6.40
2007,12,03,01,51,3.20
2007,12,03,01,52,4.80
2007,12,03,01,53,4.80
2007,12,03,01,54,1.60
2007,12,03,01,55,0.00
2007,12,03,01,56,0.00
2007,12,03,01,57,0.00
2007,12,03,01,58,0.00
2007,12,03,01,59,9.60
2007,12,03,02,00,12.90
2007,12,03,02,01,6.40
2007,12,03,02,02,3.20
2007,12,03,02,03,0.00
2007,12,03,02,04,4.80
2007,12,03,02,05,3.20
2007,12,03,02,06,4.80
2007,12,03,02,07,16.10
2007,12,03,02,08,20.90
2007,12,03,02,09,14.50
2007,12,03,02,10,11.30
2007,12,03,02,11,11.30
2007,12,03,02,12,9.60
2007,12,03,02,13,6.40
2007,12,03,02,14,9.60
2007,12,03,02,15,8.10
2007,12,03,02,16,4.80
2007,12,03,02,17,11.30
2007,12,03,02,18,6.40
2007,12,03,02,19,16.10
2007,12,03,02,20,11.30
2007,12,03,02,21,12.90
2007,12,03,02,22,9.60
2007,12,03,02,23,6.40
2007,12,03,02,24,6.40
2007,12,03,02,25,9.60
2007,12,03,02,26,11.30
2007,12,03,02,27,30.60
2007,12,03,02,28,24.20
2007,12,03,02,29,22.50
2007,12,03,02,30,27.40
2007,12,03,02,31,24.20
2007,12,03,02,32,17.70
2007,12,03,02,33,11.30
2007,12,03,02,34,32.20
2007,12,03,02,35,25.70
2007,12,03,02,36,19.30
2007,12,03,02,37,27.40
2007,12,03,02,38,12.90
2007,12,03,02,39,22.50
2007,12,03,02,40,32.20
2007,12,03,02,41,16.10
2007,12,03,02,42,19.30
2007,12,03,02,43,11.30
2007,12,03,02,44,16.10
2007,12,03,02,45,25.70
2007,12,03,02,46,22.50
2007,12,03,02,47,16.10
2007,12,03,02,48,14.50
2007,12,03,02,49,12.90
2007,12,03,02,50,11.30
2007,12,03,02,51,11.30
2007,12,03,02,52,16.10
2007,12,03,02,53,14.50
2007,12,03,02,54,24.20
2007,12,03,02,55,22.50
2007,12,03,02,56,20.90
2007,12,03,02,57,19.30
2007,12,03,02,58,16.10
2007,12,03,02,59,19.30
2007,12,03,03,00,24.20
2007,12,03,03,01,20.90
2007,12,03,03,02,17.70
2007,12,03,03,03,19.30
2007,12,03,03,04,14.50
2007,12,03,03,05,22.50
2007,12,03,03,06,20.90
2007,12,03,03,07,22.50
2007,12,03,03,08,27.40
2007,12,03,03,09,24.20
2007,12,03,03,10,25.70
2007,12,03,03,11,9.60
2007,12,03,03,12,17.70
2007,12,03,03,13,32.20
2007,12,03,03,14,22.50
2007,12,03,03,15,24.20
2007,12,03,03,16,11.30
2007,12,03,03,17,27.40
2007,12,03,03,18,20.90
2007,12,03,03,19,20.90
2007,12,03,03,20,25.70
2007,12,03,03,21,20.90
2007,12,03,03,22,16.10
2007,12,03,03,23,16.10
2007,12,03,03,24,25.70
2007,12,03,03,25,19.30
2007,12,03,03,26,24.20
2007,12,03,03,27,20.90
2007,12,03,03,28,17.70
2007,12,03,03,29,25.70
2007,12,03,03,30,19.30
2007,12,03,03,31,20.90
2007,12,03,03,32,11.30
2007,12,03,03,33,27.40
2007,12,03,03,34,22.50
2007,12,03,03,35,14.50
2007,12,03,03,36,19.30
2007,12,03,03,37,24.20
2007,12,03,03,38,11.30
2007,12,03,03,39,30.60
2007,12,03,03,40,22.50
2007,12,03,03,41,12.90
2007,12,03,03,42,19.30
2007,12,03,03,43,22.50
2007,12,03,03,44,29.00
2007,12,03,03,45,24.20
2007,12,03,03,46,29.00
2007,12,03,03,47,16.10
2007,12,03,03,48,25.70
2007,12,03,03,49,30.60
2007,12,03,03,50,27.40
2007,12,03,03,51,30.60
2007,12,03,03,52,20.90
2007,12,03,03,53,24.20
2007,12,03,03,54,27.40
2007,12,03,03,55,30.60
2007,12,03,03,56,25.70
2007,12,03,03,57,27.40
2007,12,03,03,58,22.50
2007,12,03,03,59,27.40
2007,12,03,04,00,25.70
2007,12,03,04,01,29.00
2007,12,03,04,02,32.20
2007,12,03,04,03,29.00
2007,12,03,04,04,24.20
2007,12,03,04,05,22.50
2007,12,03,04,06,24.20
2007,12,03,04,07,32.20
2007,12,03,04,08,24.20
2007,12,03,04,09,19.30
2007,12,03,04,10,30.60
2007,12,03,04,11,38.60
2007,12,03,04,12,16.10
2007,12,03,04,13,38.60
2007,12,03,04,14,32.20
2007,12,03,04,15,24.20
2007,12,03,04,16,29.00
2007,12,03,04,17,25.70
2007,12,03,04,18,22.50
2007,12,03,04,19,25.70
2007,12,03,04,20,27.40
2007,12,03,04,21,17.70
2007,12,03,04,22,29.00
2007,12,03,04,23,35.40
2007,12,03,04,24,24.20
2007,12,03,04,25,27.40
2007,12,03,04,26,30.60
2007,12,03,04,27,29.00
2007,12,03,04,28,16.10
2007,12,03,04,29,16.10
2007,12,03,04,30,22.50
2007,12,03,04,31,24.20
2007,12,03,04,32,24.20
2007,12,03,04,33,25.70
2007,12,03,04,34,16.10
2007,12,03,04,35,24.20
2007,12,03,04,36,22.50
2007,12,03,04,37,29.00
2007,12,03,04,38,17.70
2007,12,03,04,39,20.90
2007,12,03,04,40,19.30
2007,12,03,04,41,16.10
2007,12,03,04,42,27.40
2007,12,03,04,43,19.30
2007,12,03,04,44,11.30
2007,12,03,04,45,20.90
2007,12,03,04,46,19.30
2007,12,03,04,47,25.70
2007,12,03,04,48,19.30
2007,12,03,04,49,12.90
2007,12,03,04,50,17.70
2007,12,03,04,51,22.50
2007,12,03,04,52,24.20
2007,12,03,04,53,22.50
2007,12,03,04,54,16.10
2007,12,03,04,55,19.30
2007,12,03,04,56,22.50
2007,12,03,04,57,16.10
2007,12,03,04,58,17.70
2007,12,03,04,59,20.90
2007,12,03,05,00,16.10
2007,12,03,05,01,17.70
2007,12,03,05,02,17.70
2007,12,03,05,03,11.30
2007,12,03,05,04,8.10
2007,12,03,05,05,14.50
2007,12,03,05,06,14.50
2007,12,03,05,07,16.10
2007,12,03,05,08,22.50
2007,12,03,05,09,24.20
2007,12,03,05,10,27.40
2007,12,03,05,11,37.00
2007,12,03,05,12,24.20
2007,12,03,05,13,17.70
2007,12,03,05,14,9.60
2007,12,03,05,15,22.50
2007,12,03,05,16,22.50
2007,12,03,05,17,25.70
2007,12,03,05,18,22.50
2007,12,03,05,19,14.50
2007,12,03,05,20,27.40
2007,12,03,05,21,20.90
2007,12,03,05,22,24.20
2007,12,03,05,23,20.90
2007,12,03,05,24,27.40
2007,12,03,05,25,19.30
2007,12,03,05,26,20.90
2007,12,03,05,27,19.30
2007,12,03,05,28,17.70
2007,12,03,05,29,19.30
2007,12,03,05,30,24.20
2007,12,03,05,31,16.10
2007,12,03,05,32,19.30
2007,12,03,05,33,19.30
2007,12,03,05,34,8.10
2007,12,03,05,35,14.50
2007,12,03,05,36,9.60
2007,12,03,05,37,17.70
2007,12,03,05,38,16.10
2007,12,03,05,39,19.30
2007,12,03,05,40,16.10
2007,12,03,05,41,20.90
2007,12,03,05,42,9.60
2007,12,03,05,43,20.90
2007,12,03,05,44,14.50
2007,12,03,05,45,24.20
2007,12,03,05,46,16.10
2007,12,03,05,47,14.50
2007,12,03,05,48,19.30
2007,12,03,05,49,27.40
2007,12,03,05,50,16.10
2007,12,03,05,51,16.10
2007,12,03,05,52,19.30
2007,12,03,05,53,14.50
2007,12,03,05,54,19.30
2007,12,03,05,55,9.60
2007,12,03,05,56,11.30
2007,12,03,05,57,11.30
2007,12,03,05,58,14.50
2007,12,03,05,59,16.10
2007,12,03,06,00,11.30
2007,12,03,06,01,9.60
2007,12,03,06,02,14.50
2007,12,03,06,03,9.60
2007,12,03,06,04,9.60
2007,12,03,06,05,27.40
2007,12,03,06,06,14.50
2007,12,03,06,07,3.20
2007,12,03,06,08,11.30
2007,12,03,06,09,11.30
2007,12,03,06,10,9.60
2007,12,03,06,11,16.10
2007,12,03,06,12,11.30
2007,12,03,06,13,12.90
2007,12,03,06,14,17.70
2007,12,03,06,15,9.60
2007,12,03,06,16,22.50
2007,12,03,06,17,17.70
2007,12,03,06,18,19.30
2007,12,03,06,19,20.90
2007,12,03,06,20,14.50
2007,12,03,06,21,14.50
2007,12,03,06,22,14.50
2007,12,03,06,23,8.10
2007,12,03,06,24,11.30
2007,12,03,06,25,11.30
2007,12,03,06,26,17.70
2007,12,03,06,27,16.10
2007,12,03,06,28,16.10
2007,12,03,06,29,12.90
2007,12,03,06,30,17.70
2007,12,03,06,31,14.50
2007,12,03,06,32,14.50
2007,12,03,06,33,16.10
2007,12,03,06,34,9.60
2007,12,03,06,35,17.70
2007,12,03,06,36,27.40
2007,12,03,06,37,12.90
2007,12,03,06,38,17.70
2007,12,03,06,39,17.70
2007,12,03,06,40,14.50
2007,12,03,06,41,24.20
2007,12,03,06,42,20.90
2007,12,03,06,43,24.20
2007,12,03,06,44,24.20
2007,12,03,06,45,19.30
2007,12,03,06,46,25.70
2007,12,03,06,47,16.10
2007,12,03,06,48,14.50
2007,12,03,06,49,16.10
2007,12,03,06,50,27.40
2007,12,03,06,51,16.10
2007,12,03,06,52,24.20
2007,12,03,06,53,19.30
2007,12,03,06,54,12.90
2007,12,03,06,55,16.10
2007,12,03,06,56,16.10
2007,12,03,06,57,11.30
2007,12,03,06,58,4.80
2007,12,03,06,59,3.20
2007,12,03,07,00,17.70
2007,12,03,07,01,16.10
2007,12,03,07,02,14.50
2007,12,03,07,03,22.50
2007,12,03,07,04,20.90
2007,12,03,07,05,20.90
2007,12,03,07,06,16.10
2007,12,03,07,07,16.10
2007,12,03,07,08,19.30
2007,12,03,07,09,22.50
2007,12,03,07,10,19.30
2007,12,03,07,11,19.30
2007,12,03,07,12,20.90
2007,12,03,07,13,19.30
2007,12,03,07,14,17.70
2007,12,03,07,15,22.50
2007,12,03,07,16,19.30
2007,12,03,07,17,16.10
2007,12,03,07,18,9.60
2007,12,03,07,19,9.60
2007,12,03,07,20,11.30
2007,12,03,07,21,9.60
2007,12,03,07,22,17.70
2007,12,03,07,23,14.50
2007,12,03,07,24,14.50
2007,12,03,07,25,12.90
2007,12,03,07,26,12.90
2007,12,03,07,27,9.60
2007,12,03,07,28,4.80
2007,12,03,07,29,9.60
2007,12,03,07,30,8.10
2007,12,03,07,31,9.60
2007,12,03,07,32,14.50
2007,12,03,07,33,11.30
2007,12,03,07,34,8.10
2007,12,03,07,35,8.10
2007,12,03,07,36,6.40
2007,12,03,07,37,3.20
2007,12,03,07,38,22.50
2007,12,03,07,39,16.10
2007,12,03,07,40,25.70
2007,12,03,07,41,20.90
2007,12,03,07,42,14.50
2007,12,03,07,43,16.10
2007,12,03,07,44,19.30
2007,12,03,07,45,9.60
2007,12,03,07,46,17.70
2007,12,03,07,47,9.60
2007,12,03,07,48,14.50
2007,12,03,07,49,16.10
2007,12,03,07,50,9.60
2007,12,03,07,51,16.10
2007,12,03,07,52,17.70
2007,12,03,07,53,16.10
2007,12,03,07,54,12.90
2007,12,03,07,55,11.30
2007,12,03,07,56,22.50
2007,12,03,07,57,24.20
2007,12,03,07,58,20.90
2007,12,03,07,59,17.70
2007,12,03,08,00,17.70
2007,12,03,08,01,19.30
2007,12,03,08,02,22.50
2007,12,03,08,03,8.10
2007,12,03,08,04,6.40
2007,12,03,08,05,17.70
2007,12,03,08,06,14.50
2007,12,03,08,07,9.60
2007,12,03,08,08,9.60
2007,12,03,08,09,20.90
2007,12,03,08,10,16.10
2007,12,03,08,11,12.90
2007,12,03,08,12,11.30
2007,12,03,08,13,6.40
2007,12,03,08,14,16.10
2007,12,03,08,15,11.30
2007,12,03,08,16,16.10
2007,12,03,08,17,11.30
2007,12,03,08,18,17.70
2007,12,03,08,19,11.30
2007,12,03,08,20,12.90
2007,12,03,08,21,17.70
2007,12,03,08,22,17.70
2007,12,03,08,23,16.10
2007,12,03,08,24,16.10
2007,12,03,08,25,17.70
2007,12,03,08,26,20.90
2007,12,03,08,27,14.50
2007,12,03,08,28,20.90
2007,12,03,08,29,16.10
2007,12,03,08,30,20.90
2007,12,03,08,31,25.70
2007,12,03,08,32,20.90
2007,12,03,08,33,27.40
2007,12,03,08,34,20.90
2007,12,03,08,35,22.50
2007,12,03,08,36,16.10
2007,12,03,08,37,30.60
2007,12,03,08,38,12.90
2007,12,03,08,39,16.10
2007,12,03,08,40,11.30
2007,12,03,08,41,17.70
2007,12,03,08,42,22.50
2007,12,03,08,43,19.30
2007,12,03,08,44,20.90
2007,12,03,08,45,16.10
2007,12,03,08,46,11.30
2007,12,03,08,47,24.20
2007,12,03,08,48,11.30
2007,12,03,08,49,17.70
2007,12,03,08,50,20.90
2007,12,03,08,51,14.50
2007,12,03,08,52,14.50
2007,12,03,08,53,17.70
2007,12,03,08,54,17.70
2007,12,03,08,55,17.70
2007,12,03,08,56,14.50
2007,12,03,08,57,20.90
2007,12,03,08,58,20.90
2007,12,03,08,59,16.10
2007,12,03,09,00,25.70
2007,12,03,09,01,16.10
2007,12,03,09,02,16.10
2007,12,03,09,03,9.60
2007,12,03,09,04,14.50
2007,12,03,09,05,16.10
2007,12,03,09,06,11.30
2007,12,03,09,07,20.90
2007,12,03,09,08,14.50
2007,12,03,09,09,16.10
2007,12,03,09,10,12.90
2007,12,03,09,11,17.70
2007,12,03,09,12,8.10
2007,12,03,09,13,6.40
2007,12,03,09,14,11.30
2007,12,03,09,15,9.60
2007,12,03,09,16,16.10
2007,12,03,09,17,9.60
2007,12,03,09,18,9.60
2007,12,03,09,19,9.60
2007,12,03,09,20,19.30
2007,12,03,09,21,9.60
2007,12,03,09,22,11.30
2007,12,03,09,23,19.30
2007,12,03,09,24,9.60
2007,12,03,09,25,19.30
2007,12,03,09,26,20.90
2007,12,03,09,27,16.10
2007,12,03,09,28,20.90
2007,12,03,09,29,16.10
2007,12,03,09,30,17.70
2007,12,03,09,31,19.30
2007,12,03,09,32,9.60
2007,12,03,09,33,17.70
2007,12,03,09,34,17.70
2007,12,03,09,35,11.30
2007,12,03,09,36,16.10
2007,12,03,09,37,20.90
2007,12,03,09,38,20.90
2007,12,03,09,39,14.50
2007,12,03,09,40,20.90
2007,12,03,09,41,16.10
2007,12,03,09,42,11.30
2007,12,03,09,43,17.70
2007,12,03,09,44,11.30
2007,12,03,09,45,8.10
2007,12,03,09,46,22.50
2007,12,03,09,47,8.10
2007,12,03,09,48,16.10
2007,12,03,09,49,11.30
2007,12,03,09,50,19.30
2007,12,03,09,51,14.50
2007,12,03,09,52,16.10
2007,12,03,09,53,17.70
2007,12,03,09,54,11.30
2007,12,03,09,55,16.10
2007,12,03,09,56,17.70
2007,12,03,09,57,6.40
2007,12,03,09,58,24.20
2007,12,03,09,59,24.20
2007,12,03,10,00,8.10
2007,12,03,10,01,8.10
2007,12,03,10,02,17.70
2007,12,03,10,03,17.70
2007,12,03,10,04,19.30
2007,12,03,10,05,14.50
2007,12,03,10,06,11.30
2007,12,03,10,07,16.10
2007,12,03,10,08,19.30
2007,12,03,10,09,11.30
2007,12,03,10,10,16.10
2007,12,03,10,11,11.30
2007,12,03,10,12,16.10
2007,12,03,10,13,9.60
2007,12,03,10,14,6.40
2007,12,03,10,15,4.80
2007,12,03,10,16,8.10
2007,12,03,10,17,11.30
2007,12,03,10,18,8.10
2007,12,03,10,19,14.50
2007,12,03,10,20,11.30
2007,12,03,10,21,11.30
2007,12,03,10,22,8.10
2007,12,03,10,23,4.80
2007,12,03,10,24,3.20
2007,12,03,10,25,0.00
2007,12,03,10,26,4.80
2007,12,03,10,27,4.80
2007,12,03,10,28,3.20
2007,12,03,10,29,14.50
2007,12,03,10,30,6.40
2007,12,03,10,31,4.80
2007,12,03,10,32,6.40
2007,12,03,10,33,11.30
2007,12,03,10,34,8.10
2007,12,03,10,35,9.60
2007,12,03,10,36,14.50
2007,12,03,10,37,14.50
2007,12,03,10,38,12.90
2007,12,03,10,39,11.30
2007,12,03,10,40,8.10
2007,12,03,10,41,9.60
2007,12,03,10,42,8.10
2007,12,03,10,43,4.80
2007,12,03,10,44,9.60
2007,12,03,10,45,9.60
2007,12,03,10,46,11.30
2007,12,03,10,47,4.80
2007,12,03,10,48,9.60
2007,12,03,10,49,8.10
2007,12,03,10,50,3.20
2007,12,03,10,51,8.10
2007,12,03,10,52,6.40
2007,12,03,10,53,4.80
2007,12,03,10,54,6.40
2007,12,03,10,55,8.10
2007,12,03,10,56,8.10
2007,12,03,10,57,3.20
2007,12,03,10,58,4.80
2007,12,03,10,59,8.10
2007,12,03,11,00,8.10
2007,12,03,11,01,8.10
2007,12,03,11,02,4.80
2007,12,03,11,03,1.60
2007,12,03,11,04,3.20
2007,12,03,11,05,3.20
2007,12,03,11,06,3.20
2007,12,03,11,07,1.60
2007,12,03,11,08,4.80
2007,12,03,11,09,6.40
2007,12,03,11,10,6.40
2007,12,03,11,11,4.80
2007,12,03,11,12,8.10
2007,12,03,11,13,8.10
2007,12,03,11,14,8.10
2007,12,03,11,15,8.10
2007,12,03,11,16,8.10
2007,12,03,11,17,8.10
2007,12,03,11,18,9.60
2007,12,03,11,19,9.60
2007,12,03,11,20,8.10
2007,12,03,11,21,4.80
2007,12,03,11,22,6.40
2007,12,03,11,23,6.40
2007,12,03,11,24,4.80
2007,12,03,11,25,4.80
2007,12,03,11,26,3.20
2007,12,03,11,27,4.80
2007,12,03,11,28,0.00
2007,12,03,11,29,0.00
2007,12,03,11,30,0.00
2007,12,03,11,31,4.80
2007,12,03,11,32,3.20
2007,12,03,11,33,4.80
2007,12,03,11,34,6.40
2007,12,03,11,35,6.40
2007,12,03,11,36,3.20
2007,12,03,11,37,4.80
2007,12,03,11,38,3.20
2007,12,03,11,39,4.80
2007,12,03,11,40,6.40
2007,12,03,11,41,6.40
2007,12,03,11,42,3.20
2007,12,03,11,43,4.80
2007,12,03,11,44,4.80
2007,12,03,11,45,8.10
2007,12,03,11,46,9.60
2007,12,03,11,47,8.10
2007,12,03,11,48,4.80
2007,12,03,11,49,8.10
2007,12,03,11,50,14.50
2007,12,03,11,51,9.60
2007,12,03,11,52,14.50
2007,12,03,11,53,14.50
2007,12,03,11,54,11.30
2007,12,03,11,55,16.10
2007,12,03,11,56,12.90
2007,12,03,11,57,9.60
2007,12,03,11,58,6.40
2007,12,03,11,59,8.10
2007,12,03,12,00,9.60
2007,12,03,12,01,9.60
2007,12,03,12,02,8.10
2007,12,03,12,03,8.10
2007,12,03,12,04,12.90
2007,12,03,12,05,11.30
2007,12,03,12,06,6.40
2007,12,03,12,07,6.40
2007,12,03,12,08,6.40
2007,12,03,12,09,9.60
2007,12,03,12,10,11.30
2007,12,03,12,11,11.30
2007,12,03,12,12,9.60
2007,12,03,12,13,19.30
2007,12,03,12,14,14.50
2007,12,03,12,15,14.50
2007,12,03,12,16,11.30
2007,12,03,12,17,45.10
2007,12,03,12,18,30.60
2007,12,03,12,19,46.70
2007,12,03,12,20,32.20
2007,12,03,12,21,46.70
2007,12,03,12,22,40.20
2007,12,03,12,23,53.10
2007,12,03,12,24,35.40
2007,12,03,12,25,51.50
2007,12,03,12,26,43.50
2007,12,03,12,27,64.40
2007,12,03,12,28,72.40
2007,12,03,12,29,85.30
2007,12,03,12,30,72.40
2007,12,03,12,31,51.50
2007,12,03,12,32,66.00
2007,12,03,12,33,69.20
2007,12,03,12,34,70.80
2007,12,03,12,35,64.40
2007,12,03,12,36,43.50
2007,12,03,12,37,56.30
2007,12,03,14,59,11.30
2007,12,03,15,00,9.60
2007,12,03,15,01,8.10
2007,12,03,15,02,14.50
2007,12,03,15,03,9.60
2007,12,03,15,04,11.30
2007,12,03,15,05,9.60
2007,12,03,15,06,14.50
2007,12,03,15,07,16.10
2007,12,03,15,08,9.60
2007,12,03,15,09,14.50
2007,12,03,15,10,14.50
2007,12,03,15,11,19.30
2007,12,03,15,12,11.30
2007,12,03,15,13,14.50
2007,12,03,15,14,9.60
2007,12,03,15,15,9.60
2007,12,03,15,16,14.50
2007,12,03,15,17,9.60
2007,12,03,15,18,11.30
2007,12,03,15,19,11.30
2007,12,03,15,20,14.50
2007,12,03,15,21,9.60
2007,12,03,15,22,11.30
2007,12,03,15,23,9.60
2007,12,03,15,24,11.30
2007,12,03,15,25,8.10
2007,12,03,15,26,17.70
2007,12,03,15,27,16.10
2007,12,03,15,28,14.50
2007,12,03,15,29,16.10
2007,12,03,15,30,9.60
2007,12,03,15,31,11.30
2007,12,03,15,32,11.30
2007,12,03,15,33,19.30
2007,12,03,15,34,19.30
2007,12,03,15,35,20.90
2007,12,03,15,36,19.30
2007,12,03,15,37,14.50
2007,12,03,15,38,19.30
2007,12,03,15,39,20.90
2007,12,03,15,40,19.30
2007,12,03,15,41,14.50
2007,12,03,15,42,17.70
2007,12,03,15,43,11.30
2007,12,03,15,44,11.30
2007,12,03,15,45,11.30
2007,12,03,15,46,14.50
2007,12,03,15,47,14.50
2007,12,03,15,48,17.70
2007,12,03,15,49,9.60
2007,12,03,15,50,4.80
2007,12,03,15,51,11.30
2007,12,03,15,52,9.60
2007,12,03,15,53,11.30
2007,12,03,15,54,14.50
2007,12,03,15,55,11.30
2007,12,03,15,56,4.80
2007,12,03,15,57,8.10
2007,12,03,15,58,3.20
2007,12,03,15,59,8.10
2007,12,03,16,00,6.40
2007,12,03,16,01,8.10
2007,12,03,16,02,3.20
2007,12,03,16,03,6.40
2007,12,03,16,04,8.10
2007,12,03,16,05,8.10
2007,12,03,16,06,6.40
2007,12,03,16,07,6.40
2007,12,03,16,08,6.40
2007,12,03,16,09,9.60
2007,12,03,16,10,11.30
2007,12,03,16,11,8.10
2007,12,03,16,12,11.30
2007,12,03,16,13,6.40
2007,12,03,16,14,8.10
2007,12,03,16,15,6.40
2007,12,03,16,16,8.10
2007,12,03,16,17,9.60
2007,12,03,16,18,9.60
2007,12,03,16,19,9.60
2007,12,03,16,20,6.40
2007,12,03,16,21,8.10
2007,12,03,16,22,11.30
2007,12,03,16,23,0.00
2007,12,03,16,24,4.80
2007,12,03,16,25,4.80
2007,12,03,16,26,3.20
2007,12,03,16,27,1.60
2007,12,03,16,28,0.00
2007,12,03,16,29,0.00
2007,12,03,16,30,0.00
2007,12,03,16,31,4.80
2007,12,03,16,32,4.80
2007,12,03,16,33,4.80
2007,12,03,16,34,1.60
2007,12,03,16,35,0.00
2007,12,03,16,36,0.00
2007,12,03,16,37,0.00
2007,12,03,16,38,0.00
2007,12,03,16,39,0.00
2007,12,03,16,40,0.00
2007,12,03,16,41,0.00
2007,12,03,16,42,0.00
2007,12,03,16,43,0.00
2007,12,03,16,44,0.00
2007,12,03,16,45,0.00
2007,12,03,16,46,0.00
2007,12,03,16,47,4.80
2007,12,03,16,48,4.80
2007,12,03,16,49,4.80
2007,12,03,16,50,3.20
2007,12,03,16,51,4.80
2007,12,03,16,52,9.60
2007,12,03,16,53,4.80
2007,12,03,16,54,3.20
2007,12,03,16,55,3.20
2007,12,03,16,56,8.10
2007,12,03,16,57,3.20
2007,12,03,16,58,6.40
2007,12,03,16,59,3.20
2007,12,03,17,00,3.20
2007,12,03,17,01,4.80
2007,12,03,17,02,0.00
2007,12,03,17,03,6.40
2007,12,03,17,04,6.40
2007,12,03,17,05,3.20
2007,12,03,17,06,3.20
2007,12,03,17,07,4.80
2007,12,03,17,08,3.20
2007,12,03,17,09,0.00
2007,12,03,17,10,6.40
2007,12,03,17,11,6.40
2007,12,03,17,12,4.80
2007,12,03,17,13,4.80
2007,12,03,17,14,8.10
2007,12,03,17,15,19.30
2007,12,03,17,16,12.90
2007,12,03,17,17,6.40
2007,12,03,17,18,11.30
2007,12,03,17,19,17.70
2007,12,03,17,20,8.10
2007,12,03,17,21,8.10
2007,12,03,17,22,14.50
2007,12,03,17,23,11.30
2007,12,03,17,24,6.40
2007,12,03,17,25,6.40
2007,12,03,17,26,3.20
2007,12,03,17,27,6.40
2007,12,03,17,28,1.60
2007,12,03,17,29,3.20
2007,12,03,17,30,3.20
2007,12,03,17,31,4.80
2007,12,03,17,32,4.80
2007,12,03,17,33,4.80
2007,12,03,17,34,4.80
2007,12,03,17,35,1.60
2007,12,03,17,36,0.00
2007,12,03,17,37,3.20
2007,12,03,17,38,1.60
2007,12,03,17,39,0.00
2007,12,03,17,40,0.00
2007,12,03,17,41,0.00
2007,12,03,17,42,0.00
2007,12,03,17,43,0.00
2007,12,03,17,44,0.00
2007,12,03,17,45,0.00
2007,12,03,17,46,0.00
2007,12,03,17,47,0.00
2007,12,03,17,48,0.00
2007,12,03,17,49,0.00
2007,12,03,17,50,0.00
2007,12,03,17,51,0.00
2007,12,03,17,52,0.00
2007,12,03,17,53,1.60
2007,12,03,17,54,0.00
2007,12,03,17,55,0.00
2007,12,03,17,56,1.60
2007,12,03,17,57,1.60
2007,12,03,17,58,0.00
2007,12,03,17,59,1.60
2007,12,03,18,00,1.60
2007,12,03,18,01,3.20
2007,12,03,18,02,1.60
2007,12,03,18,03,4.80
2007,12,03,18,04,3.20
2007,12,03,18,05,3.20
2007,12,03,18,06,0.00
2007,12,03,18,07,0.00
2007,12,03,18,08,3.20
2007,12,03,18,09,4.80
2007,12,03,18,10,4.80
2007,12,03,18,11,1.60
2007,12,03,18,12,3.20
2007,12,03,18,13,3.20
2007,12,03,18,14,6.40
2007,12,03,18,15,3.20
2007,12,03,18,16,6.40
2007,12,03,18,17,6.40
2007,12,03,18,18,6.40
2007,12,03,18,19,8.10
2007,12,03,18,20,4.80
2007,12,03,18,21,3.20
2007,12,03,18,22,1.60
2007,12,03,18,23,1.60
2007,12,03,18,24,4.80
2007,12,03,18,25,3.20
2007,12,03,18,26,3.20
2007,12,03,18,27,6.40
2007,12,03,18,28,8.10
2007,12,03,18,29,12.90
2007,12,03,18,30,8.10
2007,12,03,18,31,4.80
2007,12,03,18,32,6.40
2007,12,03,18,33,12.90
2007,12,03,18,34,6.40
2007,12,03,18,35,9.60
2007,12,03,18,36,14.50
2007,12,03,18,37,16.10
2007,12,03,18,38,6.40
2007,12,03,18,39,3.20
2007,12,03,18,40,8.10
2007,12,03,18,41,9.60
2007,12,03,18,42,0.00
2007,12,03,18,43,4.80
2007,12,03,18,44,6.40
2007,12,03,18,45,4.80
2007,12,03,18,46,4.80
2007,12,03,18,47,16.10
2007,12,03,18,48,19.30
2007,12,03,18,49,8.10
2007,12,03,18,50,8.10
2007,12,03,18,51,16.10
2007,12,03,18,52,9.60
2007,12,03,18,53,6.40
2007,12,03,18,54,11.30
2007,12,03,18,55,12.90
2007,12,03,18,56,17.70
2007,12,03,18,57,14.50
2007,12,03,18,58,20.90
2007,12,03,18,59,6.40
2007,12,03,19,00,16.10
2007,12,03,19,01,19.30
2007,12,03,19,02,12.90
2007,12,03,19,03,27.40
2007,12,03,19,04,24.20
2007,12,03,19,05,17.70
2007,12,03,19,06,19.30
2007,12,03,19,07,8.10
2007,12,03,19,08,17.70
2007,12,03,19,09,17.70
2007,12,03,19,10,14.50
2007,12,03,19,11,14.50
2007,12,03,19,12,6.40
2007,12,03,19,13,8.10
2007,12,03,19,14,4.80
2007,12,03,19,15,8.10
2007,12,03,19,16,8.10
2007,12,03,19,17,9.60
2007,12,03,19,18,4.80
2007,12,03,19,19,6.40
2007,12,03,19,20,11.30
2007,12,03,19,21,9.60
2007,12,03,19,22,6.40
2007,12,03,19,23,11.30
2007,12,03,19,24,4.80
2007,12,03,19,25,3.20
2007,12,03,19,26,4.80
2007,12,03,19,27,6.40
2007,12,03,19,28,4.80
2007,12,03,19,29,4.80
2007,12,03,19,30,4.80
2007,12,03,19,31,3.20
2007,12,03,19,32,3.20
2007,12,03,19,33,1.60
2007,12,03,19,34,6.40
2007,12,03,19,35,3.20
2007,12,03,19,36,3.20
2007,12,03,19,37,0.00
2007,12,03,19,38,0.00
2007,12,03,19,39,0.00
2007,12,03,19,40,0.00
2007,12,03,19,41,3.20
2007,12,03,19,42,1.60
2007,12,03,19,43,0.00
2007,12,03,19,44,0.00
2007,12,03,19,45,0.00
2007,12,03,19,46,0.00
2007,12,03,19,47,1.60
2007,12,03,19,48,1.60
2007,12,03,19,49,0.00
2007,12,03,19,50,0.00
2007,12,03,19,51,0.00
2007,12,03,19,52,0.00
2007,12,03,19,53,0.00
2007,12,03,19,54,0.00
2007,12,03,19,55,0.00
2007,12,03,19,56,0.00
2007,12,03,19,57,0.00
2007,12,03,19,58,0.00
2007,12,03,19,59,0.00
2007,12,03,20,00,3.20
2007,12,03,20,01,1.60
2007,12,03,20,02,1.60